H1 CPF 2 NER 2022 1 29 9 029 01 glonass141 H2 1908801 9141 44850 2022 1 29 0 0 0 2022 2 1 23 45 0 900 1 1 0 0 0 1 H9 10 0 59608 0.00000 0 -10179422.003 10037536.355 21148473.952 10 0 59608 900.00000 0 -12685217.609 10234603.172 19643047.118 10 0 59608 1800.00000 0 -14962971.353 10591448.934 17756861.188 10 0 59608 2700.00000 0 -16959723.039 11069151.916 15526352.144 10 0 59608 3600.00000 0 -18632369.837 11620636.826 12994651.516 10 0 59608 4500.00000 0 -19949257.729 12192785.944 10210764.460 10 0 59608 5400.00000 0 -20891308.221 12728822.201 7228631.451 10 0 59608 6300.00000 0 -21452632.905 13170864.325 4106090.588 10 0 59608 7200.00000 0 -21640609.551 13462546.404 903759.966 10 0 59608 8100.00000 0 -21475415.910 13551590.904 -2316138.587 10 0 59608 9000.00000 0 -20989040.196 13392225.463 -5490991.495 10 0 59608 9900.00000 0 -20223809.455 12947339.993 -8559017.013 10 0 59608 10800.00000 0 -19230497.637 12190291.098 -11460475.822 10 0 59608 11700.00000 0 -18066093.258 11106275.543 -14138844.114 10 0 59608 12600.00000 0 -16791321.224 9693212.694 -16541925.112 10 0 59608 13500.00000 0 -15468024.026 7962096.600 -18622876.380 10 0 59608 14400.00000 0 -14156513.543 5936800.941 -20341131.959 10 0 59608 15300.00000 0 -12913005.997 3653343.447 -21663200.553 10 0 59608 16200.00000 0 -11787248.930 1158639.317 -22563323.744 10 0 59608 17100.00000 0 -10820440.755 -1491205.121 -23023981.092 10 0 59608 18000.00000 0 -10043530.846 -4232987.655 -23036232.190 10 0 59608 18900.00000 0 -9475971.754 -6998807.168 -22599889.110 10 0 59608 19800.00000 0 -9124975.705 -9718662.432 -21723516.105 10 0 59608 20700.00000 0 -8985306.081 -12323144.241 -20424256.868 10 0 59608 21600.00000 0 -9039611.699 -14746108.671 -18727493.148 10 0 59608 22500.00000 0 -9259288.616 -16927220.091 -16666341.751 10 0 59608 23400.00000 0 -9605831.862 -18814258.042 -14281000.285 10 0 59608 24300.00000 0 -10032618.631 -20365092.282 -11617954.906 10 0 59608 25200.00000 0 -10487046.361 -21549244.324 -8729066.123 10 0 59608 26100.00000 0 -10912934.079 -22348971.300 -5670551.131 10 0 59608 27000.00000 0 -11253084.483 -22759828.240 -2501883.224 10 0 59608 27900.00000 0 -11451897.604 -22790686.957 715369.718 10 0 59608 28800.00000 0 -11457925.000 -22463212.584 3918744.351 10 0 59608 29700.00000 0 -11226256.226 -21810821.505 7046094.871 10 0 59608 30600.00000 0 -10720636.788 -20877166.326 10036796.174 10 0 59608 31500.00000 0 -9915228.329 -19714212.744 12832913.701 10 0 59608 32400.00000 0 -8795937.054 -18379990.166 15380317.721 10 0 59608 33300.00000 0 -7361254.777 -16936111.070 17629721.171 10 0 59608 34200.00000 0 -5622577.327 -15445163.180 19537621.853 10 0 59608 35100.00000 0 -3603986.807 -13968083.260 21067131.988 10 0 59608 36000.00000 0 -1341506.230 -12561621.572 22188680.387 10 0 59608 36900.00000 0 1118143.210 -11276001.860 22880574.888 10 0 59608 37800.00000 0 3719231.836 -10152873.321 23129415.347 10 0 59608 38700.00000 0 6399089.524 -9223638.764 22930350.014 10 0 59608 39600.00000 0 9090468.033 -8508227.636 22287170.781 10 0 59608 40500.00000 0 11724101.598 -8014364.266 21212245.460 10 0 59608 41400.00000 0 14231361.578 -7737361.392 19726287.884 10 0 59608 42300.00000 0 16546896.658 -7660447.549 17857969.422 10 0 59608 43200.00000 0 18611150.467 -7755614.873 15643378.148 10 0 59608 44100.00000 0 20372653.005 -7984952.323 13125334.661 10 0 59608 45000.00000 0 21789990.910 -8302409.098 10352576.360 10 0 59608 45900.00000 0 22833374.539 -8655914.764 7378824.541 10 0 59608 46800.00000 0 23485736.005 -8989767.339 4261751.231 10 0 59608 47700.00000 0 23743311.527 -9247188.824 1061865.059 10 0 59608 48600.00000 0 23615682.820 -9372940.050 -2158662.604 10 0 59608 49500.00000 0 23125274.940 -9315883.629 -5337208.410 10 0 59608 50400.00000 0 22306330.889 -9031385.458 -8411920.615 10 0 59608 51300.00000 0 21203405.625 -8483451.633 -11322930.928 10 0 59608 52200.00000 0 19869442.649 -7646508.468 -14013530.074 10 0 59608 53100.00000 0 18363514.290 -6506748.358 -16431282.964 10 0 59608 54000.00000 0 16748321.264 -5062982.504 -18529060.750 10 0 59608 54900.00000 0 15087557.387 -3326962.476 -20265968.690 10 0 59608 55800.00000 0 13443251.136 -1323155.293 -21608150.903 10 0 59608 56700.00000 0 11873196.583 912020.117 -22529455.849 10 0 59608 57600.00000 0 10428582.315 3331464.243 -23011949.242 10 0 59608 58500.00000 0 9151918.369 5879123.681 -23046264.299 10 0 59608 59400.00000 0 8075348.276 8492101.439 -22631782.601 10 0 59608 60300.00000 0 7219416.809 11103063.001 -21776642.258 10 0 59608 61200.00000 0 6592344.495 13642837.602 -20497573.538 10 0 59608 62100.00000 0 6189838.339 16043106.152 -18819565.559 10 0 59608 63000.00000 0 5995445.324 18239063.576 -16775370.943 10 0 59608 63900.00000 0 5981432.301 20171944.364 -14404858.629 10 0 59608 64800.00000 0 6110153.451 21791306.151 -11754227.977 10 0 59608 65700.00000 0 6335845.956 23056976.318 -8875100.050 10 0 59608 66600.00000 0 6606776.483 23940580.916 -5823504.520 10 0 59608 67500.00000 0 6867646.293 24426593.002 -2658782.564 10 0 59608 68400.00000 0 7062152.171 24512857.806 557572.227 10 0 59608 69300.00000 0 7135593.952 24210574.163 3763111.695 10 0 59608 70200.00000 0 7037417.868 23543734.792 6895646.015 10 0 59608 71100.00000 0 6723587.960 22548050.404 9894447.882 10 0 59608 72000.00000 0 6158685.384 21269404.113 12701424.497 10 0 59608 72900.00000 0 5317647.297 19761902.266 15262235.075 10 0 59608 73800.00000 0 4187072.188 18085603.847 17527332.847 10 0 59608 74700.00000 0 2766037.004 16304023.921 19452912.294 10 0 59608 75600.00000 0 1066391.792 14481515.312 21001744.539 10 0 59608 76500.00000 0 -887480.912 12680637.051 22143886.004 10 0 59608 77400.00000 0 -3059432.553 10959618.409 22857247.856 10 0 59608 78300.00000 0 -5402810.050 9370022.885 23128016.435 10 0 59608 79200.00000 0 -7862161.290 7954708.066 22950917.366 10 0 59608 80100.00000 0 -10375315.424 6746164.979 22329318.716 10 0 59608 81000.00000 0 -12875753.529 5765304.912 21275171.227 10 0 59608 81900.00000 0 -15295173.180 5020743.374 19808786.327 10 0 59608 82800.00000 0 -17566142.211 4508610.551 17958455.327 10 0 59608 83700.00000 0 -19624732.967 4212896.028 15759915.954 10 0 59608 84600.00000 0 -21413028.674 4106313.469 13255675.070 10 0 59608 85500.00000 0 -22881398.091 4151649.475 10494199.215 10 0 59609 0.00000 0 -23990443.703 4303540.383 7528987.491 10 0 59609 900.00000 0 -24712542.202 4510602.811 4417541.933 10 0 59609 1800.00000 0 -25032910.597 4717828.165 1220258.581 10 0 59609 2700.00000 0 -24950154.252 4869140.199 -2000744.964 10 0 59609 3600.00000 0 -24476271.123 4910006.859 -5182838.775 10 0 59609 4500.00000 0 -23636111.563 4789995.077 -8264104.140 10 0 59609 5400.00000 0 -22466315.400 4465159.029 -11184546.625 10 0 59609 6300.00000 0 -21013770.351 3900159.085 -13887274.067 10 0 59609 7200.00000 0 -19333656.394 3070019.900 -16319615.338 10 0 59609 8100.00000 0 -17487158.414 1961451.295 -18434157.071 10 0 59609 9000.00000 0 -15538943.633 573674.071 -20189677.171 10 0 59609 9900.00000 0 -13554510.453 -1081285.898 -21551956.083 10 0 59609 10800.00000 0 -11597520.615 -2978849.366 -22494449.492 10 0 59609 11700.00000 0 -9727227.216 -5082672.039 -22998809.042 10 0 59609 12600.00000 0 -7996106.873 -7345937.406 -23055240.795 10 0 59609 13500.00000 0 -6447795.395 -9713100.618 -22662694.538 10 0 59609 14400.00000 0 -5115413.230 -12122010.820 -21828880.481 10 0 59609 15300.00000 0 -4020350.278 -14506323.235 -20570113.294 10 0 59609 16200.00000 0 -3171559.971 -16798100.131 -18910986.971 10 0 59609 17100.00000 0 -2565390.832 -18930491.859 -16883887.210 10 0 59609 18000.00000 0 -2185960.929 -20840385.673 -14528351.376 10 0 59609 18900.00000 0 -2006057.559 -22470911.580 -11890289.041 10 0 59609 19800.00000 0 -1988522.282 -23773700.556 -9021078.850 10 0 59609 20700.00000 0 -2088061.016 -24710800.888 -5976560.045 10 0 59609 21600.00000 0 -2253400.922 -25256173.109 -2815938.929 10 0 59609 22500.00000 0 -2429701.445 -25396701.769 399367.782 10 0 59609 23400.00000 0 -2561116.328 -25132682.756 3606929.516 10 0 59609 24300.00000 0 -2593397.412 -24477767.154 6744514.647 10 0 59609 25200.00000 0 -2476429.619 -23458365.303 9751295.681 10 0 59609 26100.00000 0 -2166589.870 -22112537.396 12569023.425 10 0 59609 27000.00000 0 -1628830.442 -20488418.140 15143147.652 10 0 59609 27900.00000 0 -838399.107 -18642242.137 17423863.265 10 0 59609 28800.00000 0 217875.978 -16636053.104 19367062.566 10 0 59609 29700.00000 0 1540790.547 -14535192.320 20935176.436 10 0 59609 30600.00000 0 3118491.102 -12405670.571 22097889.445 10 0 59609 31500.00000 0 4926736.209 -10311532.102 22832716.333 10 0 59609 32400.00000 0 6929682.204 -8312318.918 23125429.864 10 0 59609 33300.00000 0 9081161.768 -6460739.422 22970332.704 10 0 59609 34200.00000 0 11326403.664 -4800636.848 22370368.505 10 0 59609 35100.00000 0 13604123.949 -3365340.482 21337070.133 10 0 59609 36000.00000 0 15848903.640 -2176467.065 19890345.589 10 0 59609 36900.00000 0 17993755.805 -1243221.455 18058104.914 10 0 59609 37800.00000 0 19972776.943 -562225.147 15875734.076 10 0 59609 38700.00000 0 21723773.594 -117879.641 13385424.557 10 0 59609 39600.00000 0 23190755.411 116750.410 10635370.148 10 0 59609 40500.00000 0 24326190.953 178571.044 7678845.056 10 0 59609 41400.00000 0 25092931.603 112666.904 4573179.956 10 0 59609 42300.00000 0 25465722.280 -29841.546 1378655.091 10 0 59609 43200.00000 0 25432234.519 -194201.147 -1842668.607 10 0 59609 44100.00000 0 24993577.180 -324587.630 -5028157.639 10 0 59609 45000.00000 0 24164261.947 -366716.646 -8115829.346 10 0 59609 45900.00000 0 22971623.787 -270392.644 -11045566.078 10 0 59609 46800.00000 0 21454719.669 8113.780 -13760295.500 10 0 59609 47700.00000 0 19662751.168 503962.391 -16207112.893 10 0 59609 48600.00000 0 17653076.890 1242004.534 -18338322.498 10 0 59609 49500.00000 0 15488898.209 2235484.542 -20112376.668 10 0 59609 50400.00000 0 13236715.756 3485237.929 -21494693.634 10 0 59609 51300.00000 0 10963663.782 4979421.900 -22458337.440 10 0 59609 52200.00000 0 8734834.552 6693790.947 -22984546.445 10 0 59609 53100.00000 0 6610705.266 8592507.009 -23063099.972 10 0 59609 54000.00000 0 4644775.365 10629450.999 -22692516.046 10 0 59609 54900.00000 0 2881512.892 12749981.167 -21880076.580 10 0 59609 55800.00000 0 1354695.411 14893064.738 -20641679.834 10 0 59609 56700.00000 0 86213.961 16993693.563 -19001523.420 10 0 59609 57600.00000 0 -914611.201 18985482.418 -16991624.427 10 0 59609 58500.00000 0 -1651176.006 20803340.903 -14651186.572 10 0 59609 59400.00000 0 -2139195.004 22386106.796 -12025827.194 10 0 59609 60300.00000 0 -2405779.683 23679030.463 -9166679.769 10 0 59609 61200.00000 0 -2488033.585 24636006.192 -6129390.103 10 0 59609 62100.00000 0 -2431225.578 25221457.223 -2973026.434 10 0 59609 63000.00000 0 -2286620.243 25411795.907 241074.678 10 0 59609 63900.00000 0 -2109058.614 25196398.566 3450503.540 10 0 59609 64800.00000 0 -1954392.718 24578055.201 6592989.918 10 0 59609 65700.00000 0 -1876883.140 23572876.173 9607609.185 10 0 59609 66600.00000 0 -1926669.946 22209661.002 12435958.558 10 0 59609 67500.00000 0 -2147423.820 20528756.551 15023280.899 10 0 59609 68400.00000 0 -2574276.277 18580453.174 17319515.002 10 0 59609 69300.00000 0 -3232115.782 16422986.260 19280252.881 10 0 59609 70200.00000 0 -4134321.079 14120226.522 20867586.737 10 0 59609 71100.00000 0 -5281984.736 11739154.776 22050830.544 10 0 59609 72000.00000 0 -6663659.512 9347225.373 22807103.512 10 0 59609 72900.00000 0 -8255638.653 7009726.623 23121765.381 10 0 59609 73800.00000 0 -10022759.307 4787246.286 22988696.015 10 0 59609 74700.00000 0 -11919696.765 2733345.825 22410414.392 10 0 59609 75600.00000 0 -13892697.232 892538.310 21398034.792 10 0 59609 76500.00000 0 -15881678.762 -701347.481 19971060.601 10 0 59609 77400.00000 0 -17822614.641 -2026349.816 18157018.915 10 0 59609 78300.00000 0 -19650101.668 -3073055.277 15990941.800 10 0 59609 79200.00000 0 -21300007.678 -3844750.556 13514702.789 10 0 59609 80100.00000 0 -22712088.743 -4357038.543 10776219.981 10 0 59609 81000.00000 0 -23832467.151 -4636934.691 7828539.729 10 0 59609 81900.00000 0 -24615866.368 -4721481.355 4728817.390 10 0 59609 82800.00000 0 -25027508.614 -4655938.115 1537214.126 10 0 59609 83700.00000 0 -25044594.350 -4491624.280 -1684269.363 10 0 59609 84600.00000 0 -24657300.060 -4283504.811 -4872999.539 10 0 59609 85500.00000 0 -23869250.770 -4087622.167 -7966933.229 10 0 59610 0.00000 0 -22697445.962 -3958483.627 -10905832.582 10 0 59610 900.00000 0 -21171639.824 -3946515.788 -13632448.694 10 0 59610 1800.00000 0 -19333202.427 -4095695.674 -16093645.742 10 0 59610 2700.00000 0 -17233506.778 -4441460.093 -18241447.963 10 0 59610 3600.00000 0 -14931910.546 -5008983.659 -20033984.051 10 0 59610 4500.00000 0 -12493416.510 -5811899.831 -21436311.350 10 0 59610 5400.00000 0 -9986110.023 -6851520.559 -22421102.940 10 0 59610 6300.00000 0 -7478481.068 -8116588.824 -22969183.912 10 0 59610 7200.00000 0 -5036743.296 -9583575.522 -23069906.202 10 0 59610 8100.00000 0 -2722262.296 -11217509.016 -22721354.818 10 0 59610 9000.00000 0 -589200.473 -12973302.996 -21930381.580 10 0 59610 9900.00000 0 1317523.326 -14797527.007 -20712466.088 10 0 59610 10800.00000 0 2963874.970 -16630545.334 -19091406.955 10 0 59610 11700.00000 0 4327879.502 -18408934.280 -17098849.773 10 0 59610 12600.00000 0 5400281.219 -20068076.004 -14773661.518 10 0 59610 13500.00000 0 6184663.608 -21544819.768 -12161164.093 10 0 59610 14400.00000 0 6697026.240 -22780098.564 -9312242.543 10 0 59610 15300.00000 0 6964838.622 -23721391.041 -6282346.001 10 0 59610 16200.00000 0 7025613.086 -24324925.337 -3130401.500 10 0 59610 17100.00000 0 6925059.052 -24557532.502 82337.557 10 0 59610 18000.00000 0 6714898.372 -24398072.092 3293485.179 10 0 59610 18900.00000 0 6450435.519 -23838370.690 6440735.095 10 0 59610 19800.00000 0 6187986.427 -22883634.897 9463067.863 10 0 59610 20700.00000 0 5982275.134 -21552322.220 12301929.119 10 0 59610 21600.00000 0 5883908.401 -19875476.008 14902356.503 10 0 59610 22500.00000 0 5937034.737 -17895553.040 17214034.061 10 0 59610 23400.00000 0 6177286.038 -15664793.013 19192254.519 10 0 59610 24300.00000 0 6630087.970 -13243197.966 20798772.041 10 0 59610 25200.00000 0 7309409.619 -10696205.334 22002530.272 10 0 59610 26100.00000 0 8217004.573 -8092150.528 22780252.823 10 0 59610 27000.00000 0 9342175.267 -5499623.214 23116886.021 10 0 59610 27900.00000 0 10662070.912 -2984825.425 23005886.259 10 0 59610 28800.00000 0 12142507.389 -609039.452 22449346.944 10 0 59610 29700.00000 0 13739276.153 1573691.207 21457962.676 10 0 59610 30600.00000 0 15399889.069 3518573.295 20050830.987 10 0 59610 31500.00000 0 17065688.082 5191685.364 18255094.656 10 0 59610 32400.00000 0 18674233.340 6571143.172 16105430.342 10 0 59610 33300.00000 0 20161871.584 7647761.029 13643391.983 10 0 59610 34200.00000 0 21466378.503 8425181.770 10916620.187 10 0 59610 35100.00000 0 22529565.177 8919469.968 7977931.457 10 0 59610 36000.00000 0 23299739.466 9158185.279 4884303.640 10 0 59610 36900.00000 0 23733918.578 9178974.566 1695776.427 10 0 59610 37800.00000 0 23799698.870 9027741.893 -1525712.266 10 0 59610 38700.00000 0 23476702.831 8756473.611 -4717531.517 10 0 59610 39600.00000 0 22757540.650 8420810.597 -7817580.322 10 0 59610 40500.00000 0 21648244.066 8077470.968 -10765503.755 10 0 59610 41400.00000 0 20168152.466 7781633.212 -13503877.738 10 0 59610 42300.00000 0 18349254.478 7584391.724 -15979338.144 10 0 59610 43200.00000 0 16235011.468 7530393.856 -18143631.194 10 0 59610 44100.00000 0 13878711.449 7655759.970 -19954563.664 10 0 59610 45000.00000 0 11341422.002 7986375.952 -21376833.487 10 0 59610 45900.00000 0 8689627.771 8536631.731 -22382724.015 10 0 59610 46800.00000 0 5992651.430 9308660.268 -22952648.040 10 0 59610 47700.00000 0 3319966.188 10292110.042 -23075530.817 10 0 59610 48600.00000 0 738512.216 11464461.323 -22749024.708 10 0 59610 49500.00000 0 -1689870.957 12791873.294 -21979551.460 10 0 59610 50400.00000 0 -3910789.057 14230526.469 -20782171.602 10 0 59610 51300.00000 0 -5879317.381 15728403.850 -19180283.918 10 0 59610 52200.00000 0 -7561621.201 17227435.619 -17205161.228 10 0 59610 53100.00000 0 -8936105.746 18665916.703 -14895332.072 10 0 59610 54000.00000 0 -9994049.362 19981095.115 -12295820.858 10 0 59610 54900.00000 0 -10739695.278 21111821.692 -9457261.823 10 0 59610 55800.00000 0 -11189800.284 22001149.380 -6434904.802 10 0 59610 56700.00000 0 -11372661.602 22598772.446 -3287532.804 10 0 59610 57600.00000 0 -11326665.165 22863202.956 -76313.122 10 0 59610 58500.00000 0 -11098418.522 22763593.060 3136394.938 10 0 59610 59400.00000 0 -10740548.961 22281126.910 6288252.083 10 0 59610 60300.00000 0 -10309261.138 21409924.209 9318146.985 10 0 59610 61200.00000 0 -9861758.164 20157418.020 12167376.536 10 0 59610 62100.00000 0 -9453635.501 18544191.742 14780775.861 10 0 59610 63000.00000 0 -9136357.477 16603282.357 17107776.774 10 0 59610 63900.00000 0 -8954922.454 14378979.456 19103374.999 10 0 59610 64800.00000 0 -8945814.292 11925170.232 20728988.701 10 0 59610 65700.00000 0 -9135325.495 9303298.698 21953192.954 10 0 59610 66600.00000 0 -9538321.784 6580023.319 22752317.220 10 0 59610 67500.00000 0 -10157499.488 3824669.019 23110895.519 10 0 59610 68400.00000 0 -10983166.810 1106577.722 23021961.508 10 0 59610 69300.00000 0 -11993558.423 -1507534.440 22487183.335 10 0 59610 70200.00000 0 -13155671.067 -3956105.532 21516835.789 10 0 59610 71100.00000 0 -14426586.373 -6185038.807 20129609.931 10 0 59610 72000.00000 0 -15755227.045 -8149701.841 18352263.121 10 0 59610 72900.00000 0 -17084474.534 -9816532.055 16219115.024 10 0 59610 73800.00000 0 -18353561.124 -11164182.679 13771397.926 10 0 59610 74700.00000 0 -19500637.467 -12184161.789 11056472.466 10 0 59610 75600.00000 0 -20465408.825 -12880937.910 8126922.466 10 0 59610 76500.00000 0 -21191729.700 -13271507.587 5039545.129 10 0 59610 77400.00000 0 -21630047.581 -13384442.787 1854255.326 10 0 59610 78300.00000 0 -21739592.209 -13258457.890 -1367075.318 10 0 59610 79200.00000 0 -21490216.886 -12940556.487 -4561822.092 10 0 59610 80100.00000 0 -20863812.558 -12483836.203 -7667829.786 10 0 59610 81000.00000 0 -19855233.169 -11945044.652 -10624629.728 10 0 59610 81900.00000 0 -18472691.308 -11381990.516 -13374626.668 10 0 59610 82800.00000 0 -16737605.621 -10850920.207 -15864231.170 10 0 59610 83700.00000 0 -14683904.764 -10403972.275 -18044914.397 10 0 59610 84600.00000 0 -12356815.799 -10086818.507 -19874163.729 10 0 59610 85500.00000 0 -9811186.997 -9936592.781 -21316319.682 10 0 59611 0.00000 0 -7109415.001 -9980196.373 -22343277.171 10 0 59611 900.00000 0 -4319061.307 -10233052.368 -22935037.575 10 0 59611 1800.00000 0 -1510261.395 -10698362.425 -23080099.372 10 0 59611 2700.00000 0 1246970.132 -11366897.817 -22775681.659 10 0 59611 3600.00000 0 3885422.329 -12217333.774 -22027774.908 10 0 59611 4500.00000 0 6343248.167 -13217112.941 -20851018.899 10 0 59611 5400.00000 0 8566295.580 -14323801.341 -19268410.477 10 0 59611 6300.00000 0 10510112.729 -15486879.239 -17310847.233 10 0 59611 7200.00000 0 12141544.638 -16649890.861 -15016516.525 10 0 59611 8100.00000 0 13439855.872 -17752861.742 -12430142.249 10 0 59611 9000.00000 0 14397334.009 -18734881.199 -9602104.615 10 0 59611 9900.00000 0 15019350.511 -19536740.462 -6587450.772 10 0 59611 10800.00000 0 15323878.700 -20103514.818 -3444816.225 10 0 59611 11700.00000 0 15340491.304 -20386980.648 -235278.668 10 0 59611 12600.00000 0 15108881.897 -20347765.383 2978832.698 10 0 59611 13500.00000 0 14676974.550 -19957140.013 6135148.811 10 0 59611 14400.00000 0 14098702.947 -19198378.952 9172469.445 10 0 59611 15300.00000 0 13431553.765 -18067630.543 12031945.409 10 0 59611 16200.00000 0 12733978.605 -16574262.057 14658211.559 10 0 59611 17100.00000 0 12062783.657 -14740664.993 17000449.268 10 0 59611 18000.00000 0 11470606.854 -12601529.174 19013358.624 10 0 59611 18900.00000 0 11003587.972 -10202615.730 20658022.688 10 0 59611 19800.00000 0 10699328.748 -7599079.684 21902648.414 10 0 59611 20700.00000 0 10585227.711 -4853411.163 22723171.143 10 0 59611 21600.00000 0 10677258.738 -2033079.412 23103712.231 10 0 59611 22500.00000 0 10979243.921 792024.155 23036881.900 10 0 59611 23400.00000 0 11482651.023 3552239.592 22523922.044 10 0 59611 24300.00000 0 12166924.188 6180780.696 21574686.403 10 0 59611 25200.00000 0 13000334.757 8616258.287 20207458.135 10 0 59611 26100.00000 0 13941317.602 10804981.440 18448607.574 10 0 59611 27000.00000 0 14940238.281 12702942.554 16332095.642 10 0 59611 27900.00000 0 15941518.376 14277404.721 13898831.097 10 0 59611 28800.00000 0 16886031.072 15508025.816 11195892.584 10 0 59611 29700.00000 0 17713667.426 16387472.597 8275629.072 10 0 59611 30600.00000 0 18365965.987 16921499.033 5194654.807 10 0 59611 31500.00000 0 18788695.121 17128485.162 2012757.387 10 0 59611 32400.00000 0 18934278.740 17038455.491 -1208260.404 10 0 59611 33300.00000 0 18763962.057 16691617.860 -4405782.662 10 0 59611 34200.00000 0 18249624.475 16136484.165 -7517602.524 10 0 59611 35100.00000 0 17375161.242 15427652.333 -10483140.040 10 0 59611 36000.00000 0 16137373.498 14623343.630 -13244631.071 10 0 59611 36900.00000 0 14546327.139 13782800.029 -15748262.935 10 0 59611 37800.00000 0 12625163.432 12963652.606 -17945233.560 10 0 59611 38700.00000 0 10409367.626 12219373.227 -19792712.514 10 0 59611 39600.00000 0 7945524.979 11596918.341 -21254684.253 10 0 59611 40500.00000 0 5289615.394 11134665.407 -22302656.549 10 0 59611 41400.00000 0 2504917.408 10860729.956 -22916219.936 10 0 59611 42300.00000 0 -340391.051 10791734.893 -23083447.047 10 0 59611 43200.00000 0 -3175835.085 10932084.277 -22801124.154 10 0 59611 44100.00000 0 -5931339.861 11273772.218 -22074810.570 10 0 59611 45000.00000 0 -8539909.745 11796734.687 -20918725.062 10 0 59611 45900.00000 0 -10940178.016 12469728.884 -19355461.871 10 0 59611 46800.00000 0 -13078721.205 13251702.395 -17415542.290 10 0 59611 47700.00000 0 -14912042.123 14093593.570 -15136811.043 10 0 59611 48600.00000 0 -16408139.768 14940486.255 -12563689.745 10 0 59611 49500.00000 0 -17547601.865 15734027.099 -9746302.542 10 0 59611 50400.00000 0 -18324175.907 16415002.541 -6739491.666 10 0 59611 51300.00000 0 -18744796.734 16925966.022 -3601742.728 10 0 59611 52200.00000 0 -18829071.519 17213803.943 -394041.336 10 0 59611 53100.00000 0 -18608245.987 17232131.805 2821316.001 10 0 59611 54000.00000 0 -18123697.367 16943419.328 5981933.088 10 0 59611 54900.00000 0 -17425019.229 16320755.046 9026523.510 10 0 59611 55800.00000 0 -16567780.301 15349176.378 11896094.712 10 0 59611 56700.00000 0 -15611052.493 14026509.453 14535083.985 10 0 59611 57600.00000 0 -14614812.625 12363683.719 16892424.916 10 0 59611 58500.00000 0 -13637327.111 10384508.317 18922524.464 10 0 59611 59400.00000 0 -12732628.944 8124919.447 20586132.920 10 0 59611 60300.00000 0 -11948192.044 5631729.653 21851091.218 10 0 59611 61200.00000 0 -11322899.390 2960930.301 22692942.388 10 0 59611 62100.00000 0 -10885388.999 175616.633 23095396.591 10 0 59611 63000.00000 0 -10652845.968 -2656380.085 23050641.710 10 0 59611 63900.00000 0 -10630290.481 -5465056.780 22559494.090 10 0 59611 64800.00000 0 -10810391.173 -8180894.893 21631386.689 10 0 59611 65700.00000 0 -11173811.797 -10737500.607 20284194.589 10 0 59611 66600.00000 0 -11690077.168 -13074121.229 18543900.467 10 0 59611 67500.00000 0 -12318922.977 -15137934.806 16444105.428 10 0 59611 68400.00000 0 -13012073.950 -16886018.938 14025393.182 10 0 59611 69300.00000 0 -13715376.814 -18286917.480 11334558.464 10 0 59611 70200.00000 0 -14371199.437 -19321740.015 8423713.112 10 0 59611 71100.00000 0 -14920995.835 -19984748.080 5349285.818 10 0 59611 72000.00000 0 -15307929.248 -20283403.080 2170934.052 10 0 59611 72900.00000 0 -15479442.362 -20237873.382 -1049611.325 10 0 59611 73800.00000 0 -15389665.357 -19880020.712 -4249746.476 10 0 59611 74700.00000 0 -15001558.761 -19251908.066 -7367216.300 10 0 59611 75600.00000 0 -14288698.836 -18403891.857 -10341333.050 10 0 59611 76500.00000 0 -13236628.057 -17392378.845 -13114167.215 10 0 59611 77400.00000 0 -11843711.562 -16277342.942 -15631686.312 10 0 59611 78300.00000 0 -10121461.324 -15119707.413 -17844818.302 10 0 59611 79200.00000 0 -8094312.415 -13978703.812 -19710417.911 10 0 59611 80100.00000 0 -5798859.158 -12909320.107 -21192116.090 10 0 59611 81000.00000 0 -3282581.876 -11959946.505 -22261035.445 10 0 59611 81900.00000 0 -602116.619 -11170319.032 -22896357.328 10 0 59611 82800.00000 0 2178860.267 -10569848.027 -23085729.301 10 0 59611 83700.00000 0 4992044.681 -10176402.208 -22825505.117 10 0 59611 84600.00000 0 7767113.876 -9995599.377 -22120812.699 10 0 59611 85500.00000 0 10434423.193 -10020633.219 -20985449.084 99